Regional Weather Roundup
Issued by NWS

Home | Current Version | Previous Version | Text Only | Print | Product List | Glossary Off
Versions: 1 2 3 4 5 6 7 8 9 10 11 12 13 14 15 16 17 18 19 20 21 22 23 24 25 26 27 28 29 30 31 32 33 34 35 36 37 38 39 40 41 42 43 44 45 46 47 48 49 50

000
ASUS43 KLMK 221302
RWRKY
KENTUCKY REGIONAL WEATHER ROUNDUP
NATIONAL WEATHER SERVICE LOUISVILLE KY
800 AM EST SUN JAN 22 2017

NOTE "FAIR" INDICATES FEW OR NO CLOUDS BELOW 12,000 FEET
WITH NO SIGNIFICANT WEATHER AND/OR OBSTRUCTIONS TO VISIBILITY.

KYZ001>023-026-027-061>063-070>075-221400-
WESTERN AND SOUTH CENTRAL KENTUCKY

CITY           SKY/WX    TMP DP  RH WIND       PRES   REMARKS
PADUCAH        CLOUDY    52  48  86 NE5       29.46S
HENDERSON      CLOUDY    50  45  81 NE5       29.50S
OWENSBORO      MOCLDY    52  48  86 NE6       29.51R
HOPKINSVILLE   NOT AVBL
BOWLING GREEN  CLOUDY    52  48  86 CALM      29.49S
GLASGOW        NOT AVBL
$$

KYZ024-025-028>034-038-045-046-053-221400-
NORTH CENTRAL KENTUCKY

CITY           SKY/WX    TMP DP  RH WIND       PRES   REMARKS
LOUISVILLE/SDF CLOUDY    50  47  89 NE3       29.53F
LOUISVILLE/LOU CLOUDY    49  46  90 CALM      29.54F
FORT KNOX      NOT AVBL
$$

KYZ035>037-039>044-047>052-055>060-089>105-221400-
NORTHEAST KENTUCKY

CITY           SKY/WX    TMP DP  RH WIND       PRES   REMARKS
LEXINGTON      CLOUDY    48  46  93 NE7       29.54F
COVINGTON      CLOUDY    48  47  96 E6        29.57F
FRANKFORT      CLOUDY    49  46  90 E5        29.53F
$$

KYZ054-064>069-076>088-106>120-221400-
SOUTHEAST KENTUCKY

CITY           SKY/WX    TMP DP  RH WIND       PRES   REMARKS
JACKSON        CLOUDY    50  48  93 NE6       29.53F
LONDON         MOCLDY    46  43  89 N3        29.51F
SOMERSET       CLOUDY    48  48 100 CALM      29.53S
MIDDLESBORO    CLOUDY    44  44 100 CALM      29.51F
MONTICELLO     CLOUDY    48  47  96 NE12      29.52F
$$





USA.gov is the U.S. government's official web portal to all federal, state and local government web resources and services.